Goldsboro, NC

10:59 PM EDT on August 22, 2017 (GMT -0400)
Seymour Johnson Air Force Base

Weather History for KGSB - March, 2013

Change the Weather History Date:

Saturday, March 16, 2013

  Actual Average Record
Temperature  
Mean Temperature 66 °F -  
Max Temperature 80 °F 62 °F 87 °F (2002)
Min Temperature 51 °F 42 °F 25 °F (2017)
Growing Degree Days 16 (Base 50)    
Moisture  
Dew Point 42 °F    
Average Humidity 46    
Maximum Humidity 63    
Minimum Humidity 31    
Precipitation  
Precipitation 0.00 in - - ()
Sea Level Pressure  
Sea Level Pressure 29.81 in    
Wind  
Wind Speed 11 mph (SW)    
Max Wind Speed 23 mph    
Max Gust Speed 29 mph    
Visibility 10 miles    
Events Rain    
Averages and records for this station are not official NWS values.
T = Trace of Precipitation, MM = Missing Value Source: NWS Daily Summary

Daily Weather History Graph

Daily Weather History Graph

Search for Another Location

Airport or City:

Trip Planner

Search our weather history database for the weather conditions in past years. The results will help you decide how hot, cold, wet, or windy it might be!

Date:

Astronomy

Mar. 16, 2013 Rise Set
Actual Time 7:20 AM EDT 7:20 PM EDT
Civil Twilight 6:55 AM EDT 7:45 PM EDT
Nautical Twilight 6:25 AM EDT 8:15 PM EDT
Astronomical Twilight 5:56 AM EDT 8:45 PM EDT
Moon 10:00 AM EDT (3/16) No Moon Set
Length of Visible Light 12h 50m
Length of Day
11h 59m
Waxing Crescent, 23% of the Moon is Illuminated
Mar 16
Waxing Crescent
Mar 19
First Quarter
Mar 27
Full
Apr 3
Last Quarter
Apr 10
New

Hourly Weather History & Observations

Time (EDT) Temp. Dew Point Humidity Pressure Visibility Wind Dir Wind Speed Gust Speed Precip Events Conditions
12:58 AM 51.1 °F 37.0 °F 59% 29.92 in 10.0 mi SSW 5.8 mph - N/A   Clear
1:58 AM 51.3 °F 38.1 °F 61% 29.90 in 10.0 mi SW 5.8 mph - N/A   Clear
2:58 AM 52.3 °F 39.0 °F 61% 29.89 in 10.0 mi SW 10.4 mph - N/A   Overcast
3:58 AM 51.4 °F 39.2 °F 63% 29.87 in 10.0 mi SW 8.1 mph - N/A   Partly Cloudy
4:58 AM 52.0 °F 39.6 °F 63% 29.85 in 10.0 mi SW 8.1 mph - N/A   Clear
5:58 AM 53.1 °F 40.1 °F 61% 29.85 in 10.0 mi SW 9.2 mph - N/A   Overcast
6:58 AM 55.2 °F 40.8 °F 58% 29.86 in 10.0 mi SW 9.2 mph - N/A   Scattered Clouds
7:58 AM 56.1 °F 41.2 °F 57% 29.86 in 10.0 mi SW 8.1 mph - N/A   Scattered Clouds
8:58 AM 58.8 °F 42.1 °F 54% 29.86 in 10.0 mi SW 12.7 mph - N/A   Scattered Clouds
9:58 AM 61.3 °F 42.4 °F 50% 29.86 in 10.0 mi SW 13.8 mph 23.0 mph N/A   Partly Cloudy
10:20 AM 60.8 °F 44.6 °F 55% 29.85 in 10.0 mi WSW 11.5 mph - N/A Rain Light Rain
10:33 AM 62.6 °F 44.6 °F 52% 29.85 in 10.0 mi WSW 12.7 mph - N/A   Partly Cloudy
10:58 AM 66.2 °F 43.7 °F 44% 29.84 in 10.0 mi WSW 16.1 mph - 0.00 in   Scattered Clouds
11:58 AM 66.6 °F 44.2 °F 44% 29.83 in 10.0 mi WSW 11.5 mph - N/A   Scattered Clouds
12:58 PM 69.8 °F 45.0 °F 41% 29.79 in 10.0 mi SW 13.8 mph - N/A   Scattered Clouds
1:58 PM 75.4 °F 45.9 °F 35% 29.76 in 10.0 mi SW 16.1 mph 21.9 mph N/A   Clear
2:58 PM 78.1 °F 45.5 °F 32% 29.73 in 10.0 mi SW 16.1 mph 23.0 mph N/A   Clear
3:58 PM 80.1 °F 46.4 °F 31% 29.71 in 10.0 mi SW 18.4 mph 24.2 mph N/A   Clear
4:58 PM 79.0 °F 45.5 °F 31% 29.69 in 10.0 mi SW 23.0 mph 28.8 mph N/A   Clear
5:58 PM 78.6 °F 45.1 °F 31% 29.68 in 10.0 mi SW 16.1 mph 25.3 mph N/A   Clear
6:58 PM 76.1 °F 44.8 °F 33% 29.68 in 10.0 mi WSW 19.6 mph 24.2 mph N/A   Clear
7:58 PM 73.4 °F 44.6 °F 36% 29.71 in 10.0 mi SW 16.1 mph - N/A   Clear
8:58 PM 73.0 °F 41.7 °F 32% 29.75 in 10.0 mi WSW 15.0 mph 26.5 mph N/A   Clear
9:58 PM 71.8 °F 40.5 °F 32% 29.80 in 10.0 mi WSW 15.0 mph - N/A   Overcast
10:58 PM 70.7 °F 40.1 °F 33% 29.83 in 10.0 mi WSW 11.5 mph - N/A   Overcast
11:58 PM 66.2 °F 42.3 °F 42% 29.84 in 10.0 mi WSW 8.1 mph - N/A   Overcast